Starlink 34598

operational
NORAD ID: 64759 Int'l Des: 2025-147 Owner: SPXS Country: US Constellation: starlink
LEOCIRCULAR

Starlink 34598について

説明を読み込み中...

リアルタイム位置

3D地球を読み込み中...

次回通過

高度履歴

Altitude vs Time

uPlot chart will show altitude changes over time

軌道要素

1 64759U 25147E 25340.35056856 .00049774 00000-0 16798-2 0 9996
2 64759 53.1597 316.1224 0001618 83.9908 276.1277 15.30230836 24419
Epoch: Dec 6, 2025 • Age: 27 hours

現在のステータス

高度 475.9 km
速度 7.63 km/s
衛星直下点 -1.11°S, 122.61°W
打ち上げ日 Jul 8, 2025
運用期間 0.4 years
タイプ internet

技術仕様

分類 Payload
質量 575.00 kg
乾燥質量 530.00 kg
総質量 575.00 kg
長さ 0.30 m
直径 4.10 m
スパン 29.00 m
形状 Box + pan
製造者 SPXS
バスタイプ Starlink V2MO
フェーズステータス In Orbit
所有者/国 SPXS/US

大規模コンステレーション

Loading constellations...